This is the latest recevied weather packets stored in our database for station/object KI4BIY. If no packets are shown the sender has not sent any weather packets the latest 10 day(s).
| Time | Temp. | Humidity | Pressure | Rain* | Wind** | Luminosity | Snow |
|---|---|---|---|---|---|---|---|
| 1777612222 | 11.11° C | 90% | 1015.3 hPa | 0 mm | - | 0 W/m² | - |
| 1777611917 | 11.11° C | 89% | 1015.2 hPa | 0 mm | - | 0 W/m² | - |
| 1777611613 | 11.67° C | 89% | 1015.4 hPa | 0 mm | - | 0 W/m² | - |
| 1777611310 | 11.67° C | 89% | 1015.3 hPa | 0 mm | - | 0 W/m² | - |
| 1777611007 | 11.67° C | 88% | 1015.2 hPa | 0 mm | - | 0 W/m² | - |
| 1777610702 | 11.67° C | 87% | 1015.2 hPa | 0 mm | - | 0 W/m² | - |
| 1777610401 | 11.67° C | 87% | 1015.3 hPa | 0 mm | - | 0 W/m² | - |
| 1777610097 | 11.67° C | 86% | 1015.2 hPa | 0 mm | - | 0 W/m² | - |
| 1777609795 | 11.67° C | 85% | 1015.3 hPa | 0 mm | - | 0 W/m² | - |
| 1777609491 | 11.67° C | 85% | 1015.3 hPa | 0 mm | - | 0 W/m² | - |
| 1777609189 | 11.67° C | 86% | 1015.3 hPa | 0 mm | - | 0 W/m² | - |
| 1777608886 | 11.67° C | 86% | 1015.5 hPa | 0 mm | - | 0 W/m² | - |
| 1777608583 | 11.67° C | 86% | 1015.3 hPa | 0 mm | - | 0 W/m² | - |
| 1777608280 | 12.22° C | 85% | 1015.4 hPa | 0 mm | - | 0 W/m² | - |
| 1777607977 | 12.22° C | 84% | 1015.5 hPa | 0 mm | - | 0 W/m² | - |
| 1777607673 | 12.22° C | 81% | 1015.2 hPa | 0 mm | - | 0 W/m² | - |
| 1777607370 | 12.22° C | 81% | 1015.4 hPa | 0 mm | - | 0 W/m² | - |
| 1777607066 | 12.22° C | 80% | 1015.2 hPa | 0 mm | - | 0 W/m² | - |
| 1777606762 | 12.22° C | 80% | 1015.5 hPa | 0 mm | - | 0 W/m² | - |
| 1777606457 | 11.67° C | 80% | 1015.6 hPa | 0 mm | - | 0 W/m² | - |
| 1777606152 | 11.67° C | 80% | 1015.6 hPa | 0 mm | - | 0 W/m² | - |
| 1777605850 | 12.22° C | 83% | 1015.3 hPa | 0 mm | - | 0 W/m² | - |
| 1777605549 | 11.67° C | 81% | 1015.3 hPa | 0 mm | - | 0 W/m² | - |
| 1777605244 | 12.22° C | 83% | 1015.4 hPa | 0 mm | - | 0 W/m² | - |
| 1777604941 | 11.67° C | 80% | 1015.3 hPa | 0 mm | - | 0 W/m² | - |
* Rain latest hour (hover to see other rain measurements)
** Current wind speed in m/s (hover to see current wind gust speed)